Location: Bednik
(45.3500°N, 16.3833°E)
Time: 05:03:22
(UTC+00:00)

Ariane Rocket - Pass Details

Date: 08 August 2020
Orbit: 760 x 770 km, 98.7° (Epoch: 19 September)

Event Time Altitude Azimuth Distance (km) Brightness Sun altitude
Rises 18:30:26 0° 165° (SSE) 3,217 5.8 -3.8°
Reaches altitude 10° 18:32:44 10° 166° (SSE) 2,294 5.1 -4.1°
Maximum altitude 18:37:48 86° 255° (WSW) 772 3.1 -4.9°
Drops below altitude 10° 18:42:53 10° 345° (NNW) 2,306 6.2 -5.7°
Sets 18:45:12 0° 346° (NNW) 3,235 7.0 -6.0°
